NUSAT-19 (ROSALIND) (48905 NORAD) Tracking and Keplerian Element Data

This shows tracking and keplerian element data for the satellite.

Feedback or suggestion? Click here.




ElementValue
Catalog48905
NameNUSAT-19 (ROSALIND)
Epoch Orbit1687
Epoch Day288.2454662
Epoch Year2021
RAAN55.4554
Inclination97.4795
Eccentricity0.0010087
Argument of Perigee198.5786
Mean Anonmoly227.049
Mean Motion15.17013494
Decay Rate2.616E-05
L11 48905U 21059AC 21288.24546620 .00002616 00000-0 13564-3 0 9990
L22 48905 97.4795 55.4554 0010087 198.5786 227.0490 15.17013494 16878

Live tracking and technical data element details for NUSAT-19 (ROSALIND) (NORAD 48905). NUSAT-19 (ROSALIND) can be tracked NOW for your location showing map with azimuth and elevation plus other details from your city location.

Track the satellite on the map from your city or location and see movement details for azimuth, elevation, latitude, longitude, range, height, and movement on the map or in text.







IsCatalogInMostPopularTable: catalog: 48905, numindb: 25
Update: records affected: 1



GetName: 48905 NUSAT-19 (ROSALIND)

Hit Count: updated at: Tue, 19 Oct 2021 09:20:27 GMT